DW5570 Weather Reports


time (UTC)temp
C
wind
direction
speed
KPH
gust
KPH
rain 1hr
cm
rain 24hr
cm
rain mn
cm
humidity
%
barometer
mb
20260906121533 13 0 0.0 0.0 0.00 0.00 0.00 96 1020.3
20260906120035 13 0 0.0 0.0 0.00 0.00 0.00 96 1020.2
20260906114536 13 0 0.0 0.0 0.00 0.00 0.00 96 1020.0
20260906113034 13 0 0.0 0.0 0.00 0.00 0.00 95 1019.8
20260906111536 13 0 0.0 0.0 0.00 0.00 0.00 95 1019.8
20260906110035 13 0 0.0 0.0 0.00 0.00 0.00 95 1019.7
20260906104538 13 0 0.0 0.0 0.00 0.00 0.00 94 1019.8
20260906103034 13 0 0.0 0.0 0.00 0.00 0.00 94 1019.8
20260906101534 14 0 0.0 0.0 0.00 0.00 0.00 93 1019.7
20260906100036 14 0 0.0 1.6 0.00 0.00 0.00 93 1019.6
20260906094534 14 0 0.0 0.0 0.00 0.00 0.00 93 1019.5
20260906093046 14 0 0.0 1.6 0.00 0.00 0.00 93 1019.6
20260906091535 14 0 0.0 0.0 0.00 0.00 0.00 92 1019.5
20260906090035 15 0 0.0 0.0 0.00 0.00 0.00 91 1019.4
20260906084542 15 0 0.0 1.6 0.00 0.00 0.00 90 1019.2
20260906083035 15 0 0.0 1.6 0.00 0.00 0.00 89 1019.1
20260906081534 15 0 0.0 3.2 0.00 0.00 0.00 87 1018.9
20260906080049 16 112 1.6 3.2 0.00 0.00 0.00 87 1018.8
20260906074600 16 84 1.6 3.2 0.00 0.00 0.00 86 1018.9
20260906073035 16 0 0.0 4.8 0.00 0.00 0.00 85 1018.8
20260906071534 16 86 1.6 4.8 0.00 0.00 0.00 85 1018.8
20260906070039 16 139 0.0 3.2 0.00 0.00 0.00 85 1018.8
20260906064536 17 0 0.0 4.8 0.00 0.00 0.00 84 1018.8
20260906063036 17 82 1.6 8.0 0.00 0.00 0.00 83 1018.9
20260906061539 17 79 1.6 4.8 0.00 0.00 0.00 83 1018.9
20260906060037 17 94 1.6 4.8 0.00 0.00 0.00 82 1018.9
20260906054535 18 150 0.0 3.2 0.00 0.00 0.00 82 1018.8
20260906053036 18 132 0.0 8.0 0.00 0.00 0.00 80 1018.6
20260906051537 18 79 3.2 9.7 0.00 0.00 0.00 78 1018.5
20260906050035 18 115 3.2 8.0 0.00 0.00 0.00 78 1018.5
20260906044536 19 100 1.6 11.3 0.00 0.00 0.00 77 1018.5
20260906043036 19 158 3.2 9.7 0.00 0.00 0.00 76 1018.2
20260906041542 20 165 4.8 11.3 0.00 0.00 0.00 76 1018.0
20260906040038 20 87 4.8 11.3 0.00 0.00 0.00 77 1018.0
20260906034537 20 74 4.8 16.1 0.00 0.00 0.00 77 1017.8
20260906033036 20 107 4.8 12.9 0.00 0.00 0.00 79 1017.8
20260906031534 20 169 3.2 11.3 0.00 0.00 0.00 81 1017.8
20260906030037 20 0 0.0 1.6 0.00 0.00 0.00 80 1017.8
20260906024535 21 0 0.0 3.2 0.00 0.00 0.00 79 1017.4
20260906023043 21 72 0.0 4.8 0.00 0.00 0.00 77 1017.3
20260906021534 21 65 1.6 6.4 0.00 0.00 0.00 76 1017.2
20260906020034 22 0 1.6 6.4 0.00 0.00 0.00 76 1017.1
20260906014538 22 119 1.6 6.4 0.00 0.00 0.00 74 1017.0
20260906013034 23 131 3.2 8.0 0.00 0.00 0.00 74 1017.0
20260906010036 23 0 0.0 6.4 0.00 0.00 0.00 77 1016.4
20260906004535 23 70 1.6 6.4 0.00 0.00 0.00 76 1016.3
20260906003034 23 58 0.0 3.2 0.00 0.00 0.00 77 1016.1
20260906001534 23 83 0.0 1.6 0.00 0.00 0.00 77 1016.2
20260906000034 24 84 0.0 6.4 0.00 0.00 0.00 76 1016.1
20260905234533 24 0 1.6 4.8 0.00 0.00 0.00 76 1016.2
20260905233042 25 62 1.6 4.8 0.00 0.00 0.00 76 1016.2
20260905231549 25 0 0.0 4.8 0.00 0.00 0.00 74 1016.0
20260905230034 25 31 1.6 6.4 0.00 0.00 0.00 72 1016.1
20260905224539 25 41 1.6 4.8 0.00 0.00 0.00 74 1016.0
20260905223035 25 98 3.2 9.7 0.00 0.00 0.00 74 1016.0
20260905221539 25 79 1.6 4.8 0.00 0.00 0.00 75 1015.7
20260905214534 25 77 1.6 6.4 0.00 0.00 0.00 76 1015.4
20260905213037 25 134 3.2 12.9 0.00 0.00 0.00 76 1015.6
20260905211535 25 116 4.8 12.9 0.00 0.00 0.00 75 1015.6
20260905210035 24 170 4.8 9.7 0.00 0.00 0.00 80 1015.4
20260905204537 24 44 3.2 12.9 0.00 0.00 0.00 83 1015.4
20260905203038 23 105 1.6 8.0 0.00 0.00 0.00 85 1015.7
20260905201535 23 76 1.6 6.4 0.00 0.00 0.00 87 1015.9
20260905200033 22 45 1.6 6.4 0.00 0.00 0.00 87 1015.9
20260905194535 22 69 1.6 6.4 0.00 0.00 0.00 89 1015.9
20260905193035 21 82 4.8 9.7 0.00 0.00 0.00 91 1016.2
20260905191534 21 53 4.8 9.7 0.00 0.00 0.00 92 1016.2
20260905190056 21 46 3.2 11.3 0.00 0.00 0.00 92 1016.3
20260905184553 21 106 1.6 8.0 0.00 0.00 0.00 91 1016.4
20260905183036 21 90 3.2 6.4 0.00 0.00 0.00 91 1016.5
20260905181534 21 100 1.6 8.0 0.00 0.00 0.00 91 1016.4
20260905180035 21 101 4.8 8.0 0.00 0.00 0.00 91 1016.4
20260905174543 21 60 3.2 8.0 0.00 0.00 0.00 91 1016.3
20260905173039 21 60 3.2 9.7 0.00 0.00 0.00 92 1016.2
20260905171533 21 87 1.6 8.0 0.00 0.00 0.00 93 1016.2
20260905170033 20 174 3.2 6.4 0.00 0.00 0.00 94 1016.3
20260905164536 21 89 1.6 6.4 0.00 0.08 0.00 92 1016.3
20260905163036 21 101 3.2 9.7 0.00 0.08 0.00 90 1016.4
20260905161533 21 153 4.8 8.0 0.00 0.08 0.00 90 1016.4
20260905160035 21 66 3.2 8.0 0.00 0.08 0.00 88 1016.3
20260905154534 21 84 3.2 9.7 0.00 0.15 0.00 88 1016.0
20260905153036 21 84 4.8 11.3 0.00 0.15 0.00 88 1015.9
20260905151534 21 84 3.2 8.0 0.00 0.15 0.00 88 1016.0
20260905150034 21 79 4.8 8.0 0.00 0.15 0.00 88 1016.0
20260905144541 21 68 3.2 8.0 0.00 0.23 0.00 89 1015.7
20260905143035 21 106 3.2 16.1 0.00 0.23 0.00 90 1015.6
20260905141542 21 141 6.4 14.5 0.00 0.23 0.00 90 1015.7
20260905140031 21 146 4.8 14.5 0.00 0.23 0.00 90 1015.4
20260905134535 21 113 4.8 11.3 0.00 0.25 0.00 91 1015.3
20260905133032 21 91 3.2 12.9 0.00 0.25 0.00 91 1015.4
20260905131552 21 77 4.8 11.3 0.00 0.25 0.00 92 1015.2
20260905130035 21 70 3.2 9.7 0.00 0.25 0.00 93 1015.0
20260905124546 21 72 6.4 9.7 0.00 1.55 0.00 94 1015.0
20260905123045 21 70 4.8 8.0 0.00 1.55 0.00 96 1014.5